Wetbulb
47.86 42.87 39.86 41.02 40.73 41.05 38.79 37.67 37.45 38.93 44.24 40.23 40.66 42.56 42.98 46.20 44.14 44.03 43.07 43.17 44.98 52.67 57.07 59.06 59.35 59.97 60.25 59.58 60.04 60.18 61.22 62.83 62.59 61.01 58.35 56.43 56.48 56.45 56.72 57.92 59.17 59.51 59.43 58.89
43.64 40.77 43.23 43.88 42.91 41.89 39.81 36.75 36.11 40.71 42.87 40.73 40.05 40.25 44.35 43.42 43.94 44.81 44.51 44.10 44.06 44.83 52.85 57.09 58.45 59.06 59.82 58.54 59.69 59.89 61.20 62.02 62.20 62.80 60.87 58.16 57.69 56.60 57.81 57.97 58.14 59.69 59.28 59.27
40.45 41.47 45.56 42.67 41.48 40.50 40.26 38.01 37.33 38.30 39.96 40.08 37.67 38.14 40.91 43.49 45.20 45.85 46.63 47.82 47.51 47.22 46.56 53.23 57.19 58.45 59.79 59.53 58.36 59.24 60.68 61.59 62.00 62.15 60.31 58.54 57.59 56.97 56.49 56.25 57.38 59.24 59.71 59.44
42.41 43.79 43.33 40.61 39.77 41.12 36.29 42.22 42.38 41.02 38.20 33.10 38.88 32.31 38.93 42.94 43.97 44.92 47.37 48.00 48.65 49.05 50.65 49.26 55.52 57.37 58.84 60.19 58.64 59.09 59.56 60.68 61.37 61.63 60.87 59.90 59.03 57.53 58.55 58.28 58.68 58.70 59.88 59.98
40.46 41.53 41.45 39.73 40.02 42.52 38.16 43.22 42.18 40.98 38.55 37.79 37.51 34.93 36.35 41.16 40.47 43.69 46.93 49.12 50.19 50.87 50.72 50.49 51.64 56.99 58.98 60.26 59.56 58.10 58.70 59.35 60.23 60.90 61.28 60.32 59.47 59.71 59.26 59.08 58.52 58.77 59.69 60.55
41.54 46.72 44.44 42.10 43.04 43.30 43.39 40.57 39.58 36.89 38.20 33.46 36.50 35.86 34.25 38.84 41.43 43.49 46.28 47.64 48.99 49.33 50.00 51.28 50.58 55.42 57.83 59.67 59.84 57.38 57.15 58.37 59.69 60.15 60.56 60.24 59.74 59.56 58.41 57.60 57.88 58.64 59.36 60.33
38.60 39.71 44.02 44.88 40.77 42.16 42.55 38.35 31.45 30.63 30.46 28.10 35.59 33.75 37.38 41.40 43.31 46.08 46.84 47.10 46.33 46.93 48.04 49.58 49.70 50.30 55.98 57.52 58.75 57.98 55.71 56.59 59.11 59.69 59.88 60.13 59.67 59.34 58.79 57.97 58.19 58.11 58.64 59.23
30.84 27.99 39.05 43.87 41.86 38.27 38.91 38.36 29.35 24.44 25.32 27.39 34.30 32.11 36.56 43.37 47.74 48.69 47.90 46.41 45.44 45.40 46.14 46.85 49.54 48.66 54.07 56.74 58.24 58.86 56.46 55.89 57.05 59.01 59.29 59.87 60.05 59.56 59.24 58.43 58.73 58.87 59.22 59.81
34.07 33.68 39.51 41.81 44.05 42.67 37.39 35.85 38.73 29.26 19.14 24.22 29.49 32.97 37.42 40.78 42.53 45.53 45.50 44.46 44.65 44.05 43.74 45.11 45.87 48.25 48.79 55.06 57.60 58.99 58.83 57.40 56.33 56.75 58.19 58.45 59.01 59.14 58.98 58.79 58.82 59.16 59.67 60.18
35.06 30.74 39.06 40.15 42.79 42.77 41.19 41.94 34.40 34.34 22.58 19.92 25.94 27.37 33.30 35.25 40.08 44.26 41.85 41.88 42.31 42.54 41.92 41.77 43.07 44.00 45.05 52.08 56.23 58.30 59.24 59.35 59.03 58.01 57.68 57.76 57.94 58.40 58.72 58.71 58.05 59.01 60.04 60.17
37.01 34.65 33.13 39.92 38.62 37.44 38.15 37.11 37.87 36.77 30.21 25.54 21.82 27.87 35.84 40.17 42.28 43.62 42.16 41.00 40.27 39.18 39.35 40.27 40.75 41.14 41.51 43.87 50.74 52.95 55.30 57.33 58.26 59.90 60.49 59.60 59.03 58.56 58.40 58.02 58.34 58.84 59.72 59.98
39.80 35.27 29.23 33.71 39.01 40.58 41.03 38.04 38.55 32.84 30.17 29.25 27.77 30.11 37.10 36.02 38.00 39.32 38.96 38.92 38.11 38.80 39.47 40.20 40.48 40.59 41.17 41.66 41.97 46.37 51.46 53.70 55.24 56.62 58.21 58.87 60.31 60.06 59.07 58.32 58.47 59.01 59.48 60.02
40.52 35.20 28.85 31.67 35.09 38.17 36.62 38.95 39.80 39.32 32.58 31.17 29.15 30.84 37.06 35.13 33.54 35.57 37.65 38.83 39.51 39.60 39.87 40.12 40.30 40.34 40.38 40.58 41.46 41.48 41.69 42.84 45.78 51.24 53.51 54.56 55.43 58.12 59.23 59.73 59.49 59.37 59.16 59.48
42.42 34.55 32.59 28.85 31.91 35.89 34.92 37.88 38.81 38.13 32.21 32.45 32.34 34.58 36.10 35.31 35.21 35.81 37.73 39.31 39.93 40.23 41.27 40.14 39.38 39.79 40.29 40.93 41.22 41.53 42.10 42.44 42.74 42.61 43.23 45.74 48.46 51.30 53.24 54.66 56.13 57.27 58.33 58.81
40.90 33.81 34.09 34.65 35.56 36.93 36.77 37.31 38.57 37.00 37.18 33.02 35.76 35.33 39.20 37.79 36.28 36.93 38.30 39.36 39.94 41.02 41.17 40.13 40.02 40.35 40.33 40.75 41.07 41.54 42.07 42.68 43.14 42.95 42.65 42.84 43.38 45.67 47.70 48.67 50.03 50.93 51.52 53.02
39.88 32.86 35.68 32.46 35.39 36.25 34.17 37.69 38.51 38.70 38.75 38.78 38.31 35.17 42.74 42.28 38.95 36.52 37.65 38.04 39.42 41.60 41.72 41.19 40.01 40.22 41.09 41.21 41.05 41.05 41.59 42.19 42.99 42.70 42.58 42.76 42.41 42.96 44.69 44.51 43.25 43.24 43.24 43.73
32.91 32.18 31.73 28.66 32.96 34.03 30.49 34.55 37.03 37.61 39.83 39.52 35.36 40.09 38.39 39.79 38.95 37.88 37.65 38.97 39.36 41.74 42.56 41.86 42.05 41.36 40.69 40.80 41.53 41.01 41.08 42.09 42.39 40.84 39.13 38.71 38.65 40.16 39.63 39.27 39.81 39.45 39.79 39.55
31.06 30.09 28.65 24.98 31.95 24.22 33.97 39.48 39.83 38.89 40.29 42.07 41.73 41.32 42.64 42.23 43.91 42.06 41.29 40.69 41.03 41.44 41.56 41.44 41.06 41.13 41.01 41.07 41.09 41.27 40.45 40.21 39.24 37.98 37.49 37.07 37.36 36.48 36.70 38.34 37.93 36.41 36.15 36.78
34.50 31.51 25.04 23.36 27.93 31.07 31.32 33.44 37.08 36.87 36.96 42.30 41.47 43.22 41.84 41.20 41.16 41.13 41.60 40.95 41.47 40.58 40.15 39.98 40.35 40.44 39.35 38.84 39.06 38.10 36.28 36.06 36.33 36.35 36.25 35.83 35.37 31.08 34.38 35.23 36.09 37.01 34.88 33.69
33.90 34.24 29.41 27.69 26.76 25.02 33.85 34.63 42.49 41.25 33.13 43.19 43.48 43.00 43.01 40.97 37.23 41.66 38.36 38.50 38.26 38.56 39.17 38.54 38.01 37.35 36.71 35.50 35.97 34.62 33.60 33.69 33.73 33.60 34.36 34.27 32.70 30.67 34.72 34.26 33.09 31.46 31.86 31.71
30.89 30.70 27.15 27.96 29.12 28.71 32.41 35.35 43.16 32.34 33.83 40.11 43.33 43.62 43.34 41.06 44.51 40.70 38.16 36.83 36.52 36.37 36.82 35.84 35.05 33.70 32.85 32.94 32.95 32.02 31.30 30.39 31.14 30.78 30.07 29.53 29.86 33.16 33.27 32.80 31.25 31.65 31.59 31.20
31.25 30.71 29.72 31.13 27.94 25.65 33.35 40.08 36.34 37.98 32.64 34.55 36.59 41.89 43.57 44.72 38.66 37.20 36.14 34.12 33.79 34.27 33.70 33.32 31.44 29.33 28.87 29.35 30.84 29.43 29.00 28.51 26.50 26.65 28.43 30.59 32.41 32.20 32.41 32.88 31.67 31.76 31.86 31.56
29.83 34.22 31.04 33.29 31.81 32.87 37.06 33.35 35.95 34.98 34.85 34.17 35.08 37.78 42.94 37.98 34.60 34.59 33.22 32.15 31.42 30.92 29.97 29.77 28.05 26.37 25.18 26.78 29.17 28.64 27.75 28.40 24.38 24.52 28.58 28.23 29.77 31.93 32.10 32.39 31.41 30.65 31.22 30.50
32.62 28.90 32.61 32.07 29.96 29.04 30.79 33.57 33.71 35.16 34.64 34.03 34.26 35.12 37.19 34.65 33.29 30.83 30.09 29.35 28.52 27.46 26.35 25.54 24.68 22.35 20.79 21.11 22.61 23.12 24.78 27.40 20.21 21.89 22.14 21.61 21.88 20.88 28.33 30.08 29.89 31.14 29.80 29.11
19.61 22.03 23.68 28.72 26.42 28.86 31.35 28.18 28.55 32.51 32.72 32.35 32.00 32.45 33.15 32.73 30.61 29.58 27.83 26.69 25.93 24.85 23.76 22.86 21.21 19.26 17.54 18.02 17.60 16.70 19.19 19.96 21.90 20.70 20.60 20.46 19.85 17.49 18.66 21.23 23.72 27.56 28.65 30.28
12.69 9.29 14.78 20.21 17.63 18.68 27.26 26.53 27.52 28.45 27.89 28.65 29.54 28.95 29.07 30.41 28.56 27.59 25.42 24.73 23.29 21.17 20.05 18.14 16.48 15.10 13.28 13.07 13.46 13.09 13.78 17.09 17.14 20.11 19.98 18.84 18.78 17.42 17.70 16.70 18.34 28.16 30.79 31.90
MSLP
1020.15 1020.30 1019.66 1019.86 1020.64 1020.75 1020.74 1020.79 1020.56 1019.58 1019.00 1019.00 1018.45 1017.55 1017.36 1016.99 1017.44 1017.46 1017.64 1017.65 1017.61 1017.39 1016.65 1016.81 1017.19 1017.61 1018.18 1018.35 1018.61 1018.98 1019.39 1019.68 1020.26 1020.73 1021.36 1021.77 1021.89 1022.46 1022.64 1022.52 1022.57 1022.93 1023.29 1023.69
1020.36 1019.08 1019.27 1020.26 1020.70 1020.90 1021.08 1020.96 1020.57 1019.84 1019.10 1019.17 1018.73 1017.79 1017.25 1017.04 1016.81 1016.66 1016.79 1016.70 1016.74 1016.80 1016.58 1016.51 1016.80 1017.08 1017.34 1017.58 1017.84 1018.27 1018.46 1018.90 1019.44 1020.06 1020.49 1020.77 1021.40 1021.53 1021.53 1021.99 1022.33 1022.48 1022.67 1022.89
1018.99 1018.46 1019.25 1020.19 1020.51 1021.02 1020.97 1021.03 1020.90 1020.35 1019.41 1019.13 1019.05 1018.05 1017.09 1016.44 1016.08 1015.74 1015.58 1015.47 1015.43 1015.45 1015.58 1015.56 1015.95 1016.10 1016.25 1016.64 1017.06 1017.24 1017.68 1018.17 1018.76 1019.28 1019.88 1020.51 1020.92 1021.42 1021.75 1021.85 1022.05 1021.98 1022.19 1022.40
1019.03 1018.84 1019.07 1019.65 1019.90 1020.39 1020.58 1020.52 1020.85 1020.76 1020.25 1019.71 1019.23 1017.66 1016.27 1015.76 1015.41 1015.12 1014.53 1014.54 1014.45 1014.34 1014.13 1014.23 1014.52 1014.97 1015.19 1015.31 1015.86 1016.40 1016.94 1017.47 1017.92 1018.64 1019.08 1019.39 1019.80 1020.18 1020.31 1020.65 1020.93 1021.09 1021.41 1021.67
1017.89 1018.10 1018.56 1018.92 1018.65 1020.02 1019.81 1019.91 1020.40 1020.70 1020.64 1020.33 1019.60 1019.11 1015.73 1015.44 1015.00 1014.10 1013.43 1013.16 1013.13 1012.99 1013.06 1013.25 1013.40 1013.60 1013.99 1014.53 1014.78 1015.22 1015.97 1016.58 1017.07 1017.71 1018.26 1018.72 1018.95 1019.17 1019.70 1020.11 1020.30 1020.41 1020.61 1020.86
1018.25 1018.26 1017.95 1017.77 1018.39 1019.00 1019.44 1020.06 1020.52 1020.82 1020.86 1020.09 1018.91 1018.90 1015.03 1014.81 1014.04 1013.20 1012.55 1012.13 1012.14 1012.21 1012.09 1012.01 1012.10 1012.35 1012.82 1013.61 1014.10 1014.44 1015.09 1015.51 1016.18 1016.81 1017.47 1017.92 1018.22 1018.61 1019.11 1019.42 1019.73 1019.92 1019.97 1020.26
1018.40 1017.96 1017.81 1017.85 1018.39 1018.78 1019.02 1019.88 1020.49 1021.03 1020.77 1018.28 1018.02 1018.38 1014.01 1013.63 1012.86 1011.94 1011.57 1011.29 1011.46 1011.70 1011.73 1011.57 1011.70 1011.95 1012.14 1012.64 1013.12 1013.64 1014.18 1014.78 1015.24 1015.80 1016.36 1016.94 1017.56 1018.04 1018.04 1018.40 1018.73 1019.25 1019.37 1019.31
1017.85 1017.75 1017.29 1017.34 1017.39 1017.45 1018.06 1018.82 1018.86 1019.22 1019.44 1018.38 1018.07 1016.31 1013.52 1012.43 1011.69 1011.18 1010.76 1011.02 1011.31 1011.59 1011.44 1011.21 1010.95 1011.10 1011.28 1011.63 1012.07 1012.66 1013.23 1013.73 1014.37 1014.85 1015.28 1015.87 1016.48 1016.95 1017.17 1017.41 1017.59 1017.83 1018.00 1017.98
1017.11 1016.80 1015.99 1016.08 1017.05 1017.19 1017.64 1017.51 1016.92 1018.44 1019.56 1018.94 1017.27 1015.06 1013.49 1012.31 1011.81 1011.05 1010.73 1010.92 1010.74 1010.83 1010.92 1011.03 1010.72 1010.51 1010.74 1011.02 1011.21 1011.72 1012.32 1012.79 1013.47 1013.84 1014.32 1014.72 1015.10 1015.57 1015.62 1016.05 1016.63 1016.82 1017.05 1017.20
1016.87 1016.92 1016.64 1016.59 1016.99 1016.60 1016.06 1016.52 1017.57 1017.96 1018.57 1018.15 1016.28 1014.80 1012.65 1012.07 1011.36 1010.57 1010.57 1010.68 1010.69 1010.81 1010.58 1010.64 1010.54 1010.42 1010.50 1010.58 1010.67 1011.14 1011.52 1011.72 1011.96 1012.36 1012.85 1013.43 1013.94 1014.47 1014.80 1015.33 1015.58 1015.75 1015.87 1016.18
1016.80 1016.72 1017.38 1017.02 1016.03 1015.47 1016.26 1016.04 1016.09 1016.43 1017.10 1016.46 1015.70 1013.22 1011.45 1010.79 1010.20 1009.79 1010.00 1010.37 1010.45 1010.61 1010.30 1010.36 1010.48 1010.62 1010.56 1010.65 1010.86 1011.15 1011.49 1011.87 1012.18 1012.31 1012.45 1012.86 1013.28 1013.62 1014.06 1014.33 1014.49 1014.64 1015.02 1015.20
1015.85 1016.25 1016.34 1015.80 1016.03 1015.90 1015.60 1015.06 1015.49 1015.49 1015.13 1015.07 1014.45 1011.82 1010.56 1010.39 1010.15 1009.96 1009.98 1010.24 1010.41 1010.56 1010.29 1010.34 1010.59 1010.56 1010.56 1010.56 1010.90 1011.10 1011.30 1011.57 1011.84 1012.09 1012.31 1012.43 1012.73 1013.03 1013.39 1013.57 1013.66 1014.03 1014.33 1014.62
1014.93 1015.25 1015.77 1015.84 1016.49 1015.89 1015.16 1014.37 1013.68 1014.04 1014.14 1013.74 1013.56 1010.73 1010.16 1009.96 1009.90 1009.96 1010.27 1010.53 1010.64 1010.64 1010.34 1010.38 1010.49 1010.46 1010.62 1010.70 1010.90 1011.11 1011.28 1011.41 1011.71 1011.95 1012.15 1012.37 1012.51 1012.61 1012.74 1012.98 1013.23 1013.43 1013.65 1013.90
1014.58 1014.55 1014.39 1013.81 1013.62 1013.89 1014.12 1013.76 1013.62 1013.65 1013.66 1011.89 1011.53 1010.27 1010.08 1010.13 1010.09 1010.34 1010.51 1010.72 1010.66 1010.66 1010.52 1010.48 1010.75 1010.82 1010.76 1011.02 1011.18 1011.23 1011.43 1011.56 1011.81 1012.03 1012.20 1012.30 1012.39 1012.44 1012.52 1012.62 1012.79 1012.97 1013.12 1013.31
1015.03 1014.13 1014.29 1014.04 1014.01 1013.44 1012.94 1012.92 1012.83 1012.43 1010.97 1011.75 1009.29 1009.86 1009.52 1009.07 1009.27 1009.61 1009.83 1010.32 1010.59 1010.53 1010.48 1010.61 1010.84 1011.09 1011.18 1011.30 1011.52 1011.62 1011.59 1011.73 1011.88 1012.02 1012.24 1012.28 1012.41 1012.41 1012.44 1012.53 1012.58 1012.66 1012.79 1012.89
1015.06 1014.51 1014.02 1013.68 1013.98 1013.53 1013.08 1012.80 1012.12 1011.64 1010.50 1010.69 1009.01 1008.56 1008.22 1008.60 1009.06 1009.63 1009.72 1010.35 1010.59 1010.47 1010.45 1010.41 1010.76 1010.99 1011.28 1011.45 1011.55 1011.60 1011.56 1011.67 1011.92 1012.16 1012.36 1012.57 1012.68 1012.74 1012.96 1013.07 1013.18 1013.24 1013.36 1013.58
1015.21 1015.36 1014.94 1012.85 1013.16 1013.06 1012.24 1010.65 1010.61 1010.53 1009.67 1008.67 1008.14 1005.78 1008.22 1008.44 1008.61 1008.77 1009.22 1009.45 1009.84 1010.13 1010.30 1010.53 1010.86 1011.10 1011.41 1011.67 1011.84 1011.91 1011.81 1011.81 1012.05 1012.35 1012.61 1012.81 1013.01 1013.29 1013.48 1013.49 1013.48 1013.68 1013.88 1014.06
1014.60 1015.07 1015.65 1014.42 1013.20 1010.79 1007.53 1008.74 1008.77 1008.66 1007.26 1007.62 1007.16 1006.18 1006.99 1007.43 1007.58 1008.29 1008.66 1009.14 1009.86 1010.14 1010.41 1010.86 1011.11 1011.53 1011.83 1011.98 1012.22 1012.37 1012.41 1012.38 1012.50 1012.78 1013.06 1013.28 1013.53 1013.67 1013.84 1013.99 1014.09 1014.24 1014.34 1014.37
1013.63 1014.46 1014.82 1014.32 1012.10 1009.53 1007.86 1006.44 1006.56 1007.41 1004.87 1005.41 1006.09 1005.49 1006.50 1007.51 1008.25 1008.43 1008.47 1008.97 1009.66 1010.46 1011.22 1011.70 1011.90 1012.20 1012.56 1012.78 1012.79 1012.92 1013.07 1013.09 1013.19 1013.44 1013.60 1013.81 1014.16 1014.41 1014.56 1014.61 1014.69 1014.67 1014.77 1014.86
1012.67 1012.66 1012.68 1013.19 1011.28 1008.27 1004.43 1005.11 1005.55 1007.38 1006.06 1003.91 1004.62 1004.79 1005.92 1007.52 1008.42 1006.81 1008.61 1009.64 1010.75 1011.62 1011.97 1011.91 1012.52 1013.12 1013.33 1013.46 1013.33 1013.49 1013.95 1014.03 1014.29 1014.33 1014.35 1014.30 1014.51 1014.74 1014.77 1014.84 1015.06 1015.33 1015.42 1015.53
1011.26 1011.85 1011.25 1010.74 1010.33 1007.33 1005.43 1004.88 1005.49 1007.32 1003.12 1002.24 1002.97 1004.01 1005.76 1006.10 1004.31 1007.19 1008.85 1010.23 1011.15 1011.79 1012.19 1012.88 1013.37 1014.05 1014.52 1014.29 1014.13 1014.49 1014.87 1015.04 1015.19 1015.02 1014.99 1015.04 1014.99 1015.02 1015.21 1015.25 1015.39 1015.56 1015.63 1015.69
1009.01 1010.37 1009.80 1009.61 1008.85 1007.42 1005.07 1005.42 1004.30 1003.72 1003.25 1003.18 1003.49 1003.58 1004.07 1004.01 1006.44 1007.65 1009.21 1010.75 1011.66 1012.36 1013.30 1013.98 1014.50 1015.27 1015.46 1015.24 1015.12 1015.47 1015.87 1016.13 1015.93 1015.64 1015.63 1015.58 1015.47 1015.60 1015.75 1015.87 1015.97 1016.09 1016.16 1016.18
1009.17 1008.96 1008.87 1008.26 1006.66 1006.44 1005.79 1005.48 1004.92 1004.46 1004.29 1004.31 1004.51 1003.96 1003.81 1005.07 1006.88 1008.66 1009.90 1011.26 1012.50 1013.50 1014.59 1015.14 1015.56 1016.09 1016.50 1016.50 1016.38 1016.51 1016.86 1016.61 1016.46 1016.29 1016.46 1016.49 1016.22 1016.21 1016.29 1016.34 1016.42 1016.53 1016.66 1016.76
1008.98 1010.23 1009.45 1008.97 1008.55 1008.13 1007.62 1007.23 1007.08 1006.45 1005.58 1005.88 1005.59 1005.07 1005.21 1006.21 1007.68 1009.68 1011.42 1012.85 1013.88 1014.97 1015.70 1016.04 1016.50 1017.10 1017.63 1017.83 1017.62 1017.45 1017.40 1017.13 1017.19 1017.17 1017.14 1017.16 1017.17 1017.21 1017.01 1016.87 1016.79 1016.78 1016.93 1017.02
1013.60 1012.72 1012.08 1011.19 1010.70 1010.17 1009.45 1010.46 1010.44 1008.53 1007.80 1007.17 1006.67 1006.96 1007.67 1008.17 1009.75 1010.96 1012.66 1014.09 1014.99 1015.84 1016.68 1017.09 1017.67 1018.25 1018.47 1018.46 1018.75 1018.86 1018.56 1018.01 1017.91 1017.89 1017.97 1018.04 1018.12 1018.12 1018.20 1018.09 1017.77 1017.63 1017.36 1017.24
1017.83 1017.99 1017.09 1015.76 1015.66 1015.06 1013.23 1013.45 1012.15 1010.78 1010.20 1009.87 1009.14 1009.73 1010.05 1010.39 1011.23 1012.53 1014.14 1015.36 1016.17 1017.11 1017.79 1018.45 1018.63 1018.89 1020.21 1020.56 1020.37 1019.64 1019.07 1018.52 1018.46 1018.64 1018.70 1018.85 1018.91 1018.97 1018.97 1018.96 1018.96 1018.50 1018.16 1017.67
Wind_Speed
4 5 17 17 6 5 6 6 9 4 10 5 15 20 10 12 5 8 9 8 10 15 18 16 15 14 11 11 13 14 14 14 10 6 8 6 9 6 5 7 9 9 7 7
4 17 15 6 3 4 4 2 4 5 4 8 8 17 15 7 8 9 11 11 10 7 10 11 13 12 15 14 15 15 17 16 13 10 6 4 6 5 8 6 5 9 9 9
15 4 10 10 5 10 9 8 3 5 2 3 2 9 10 8 10 8 10 14 12 14 13 13 15 17 18 17 17 17 18 17 15 14 5 2 3 2 3 3 5 9 10 10
14 6 16 8 15 13 15 9 6 6 2 5 5 9 8 10 15 10 15 13 16 15 14 13 16 17 19 20 17 18 17 17 15 16 12 13 11 11 10 10 8 9 12 12
9 12 15 18 15 12 8 9 13 7 4 3 4 5 6 5 10 14 17 18 18 17 15 15 16 18 18 18 18 18 17 17 16 16 17 13 15 10 6 7 9 10 10 13
8 3 17 12 13 18 9 5 4 3 3 13 11 9 8 12 10 9 12 14 14 13 14 15 15 17 16 17 16 16 17 18 17 16 18 18 18 15 10 8 9 9 9 9
8 16 3 6 12 8 10 9 4 7 8 19 10 10 21 8 8 14 15 14 10 10 9 11 11 12 14 17 18 15 17 18 18 18 17 19 17 16 17 13 10 10 9 9
13 8 17 8 11 6 19 17 6 7 7 9 3 12 9 12 21 21 15 9 6 8 8 9 10 11 15 17 19 18 18 18 17 18 18 16 17 12 12 14 12 11 11 12
8 11 1 10 8 9 9 19 11 3 3 3 7 9 7 8 11 15 16 8 11 9 8 9 9 8 11 13 18 19 17 17 16 17 16 18 17 18 17 17 12 11 12 10
5 2 3 7 9 11 15 7 12 5 5 7 6 6 11 3 14 14 7 9 9 8 7 4 5 4 6 9 12 15 16 18 19 20 17 15 17 17 17 14 15 15 14 13
3 5 1 3 12 19 7 13 9 6 4 5 4 9 9 19 19 20 9 7 7 8 6 4 2 1 1 3 6 5 6 8 8 11 13 13 13 15 15 15 14 16 14 14
15 5 10 15 6 2 14 12 19 11 19 3 1 12 3 8 10 7 7 6 5 6 6 5 3 2 2 4 4 6 7 7 7 6 7 8 10 11 13 14 16 14 14 13
14 8 9 3 3 4 8 15 19 18 3 19 13 11 4 5 0 3 8 7 6 4 5 2 2 3 3 2 2 3 4 6 6 5 6 6 7 8 11 13 12 13 12 12
8 6 11 13 5 6 13 19 18 23 13 22 20 18 8 7 6 5 6 6 6 5 4 2 0 1 1 1 1 1 3 3 4 4 6 7 7 7 7 6 7 7 9 11
6 13 14 14 8 3 10 19 25 25 34 18 25 21 16 13 14 12 11 8 7 7 6 5 3 3 3 3 3 3 4 4 2 4 4 6 5 5 5 6 6 6 6 6
6 7 8 16 13 12 13 16 16 26 29 25 27 18 20 12 6 8 9 9 9 8 7 7 6 5 3 4 4 5 5 3 2 3 3 2 1 2 2 3 4 4 4 3
4 2 7 20 11 14 16 29 25 24 27 30 28 40 6 10 8 9 12 14 13 9 8 7 6 5 3 2 4 5 4 2 1 2 1 1 3 2 2 2 3 3 2 2
6 6 3 10 9 19 24 15 29 32 31 29 29 17 19 16 12 6 8 10 10 8 6 5 4 2 1 2 3 2 3 2 3 3 2 1 1 3 2 1 1 1 1 0
17 8 5 6 12 5 7 11 28 25 33 29 29 31 14 5 5 7 8 4 7 7 6 5 4 3 3 4 3 3 5 5 4 3 2 1 2 2 2 1 0 2 3 3
19 18 8 9 13 10 14 7 18 11 22 32 30 25 24 9 9 16 8 7 7 7 6 7 6 4 5 5 3 6 5 6 6 5 4 2 2 4 2 1 3 2 2 2
9 13 20 17 13 10 6 7 22 16 18 12 26 23 17 18 26 9 11 6 6 5 7 6 7 7 5 5 5 7 6 7 5 4 5 5 4 4 4 3 3 2 3 3
9 6 11 10 7 15 8 20 23 11 1 3 2 14 22 27 11 14 11 10 9 9 7 6 8 7 7 7 7 8 8 5 4 5 6 5 5 4 3 4 3 3 3 3
6 9 5 12 8 2 8 6 3 0 2 2 4 6 17 10 8 10 11 10 8 9 6 5 8 9 9 8 7 7 6 5 4 6 6 5 5 5 4 3 3 3 3 3
5 4 4 3 2 6 11 8 14 7 3 2 2 4 4 10 14 14 12 10 9 7 7 6 8 9 8 7 8 7 6 5 5 6 6 4 5 4 4 3 2 2 1 1
2 9 6 1 6 3 9 16 15 11 9 8 8 7 9 16 13 14 12 10 9 8 7 7 8 7 8 8 8 7 6 4 5 5 5 5 4 4 4 4 3 3 2 1
8 6 5 4 9 8 5 14 16 10 11 11 8 9 11 10 14 13 12 8 9 9 7 8 9 11 7 5 5 6 6 5 4 5 4 4 3 3 3 3 4 9 10 9
Wind_Direction
199 178 206 199 192 204 168 181 213 236 238 191 224 246 234 240 225 235 234 220 217 216 222 212 211 210 207 190 192 198 195 197 185 179 187 191 193 197 205 200 201 197 197 194
172 217 203 181 187 223 240 229 245 284 274 177 260 254 247 232 233 212 218 232 223 228 228 210 209 204 203 200 200 199 204 197 196 196 195 179 188 208 204 205 195 196 196 193
205 225 162 176 177 215 236 220 228 236 282 206 326 268 253 241 241 238 228 226 227 211 215 214 209 204 205 205 203 203 203 199 201 200 164 136 127 106 180 191 205 207 204 202
230 186 178 175 213 196 226 167 214 262 256 233 161 275 246 231 237 220 235 225 229 228 226 211 207 209 206 208 202 206 200 201 200 199 198 201 203 206 213 212 210 206 205 208
189 184 187 202 209 190 219 174 203 217 225 316 220 266 261 209 233 238 237 236 236 237 230 223 212 208 209 204 203 201 200 200 198 200 206 206 212 215 213 211 208 206 206 212
232 315 193 204 196 195 152 87 56 77 151 250 220 220 219 224 217 238 238 237 233 235 234 230 215 204 206 205 205 198 197 203 197 195 203 211 216 215 212 205 207 213 211 209
192 227 273 186 198 186 180 155 205 212 209 241 181 211 249 242 239 226 231 235 231 232 232 232 211 203 204 199 201 198 196 203 198 196 200 209 216 216 220 212 210 209 213 214
211 224 197 164 220 199 200 193 177 201 197 248 101 232 241 221 232 243 249 240 233 241 249 247 231 203 203 200 200 199 198 206 195 198 205 204 209 212 216 214 212 215 216 218
199 226 256 196 173 174 183 213 203 81 9 65 209 275 291 256 262 258 249 224 241 233 241 246 253 216 199 203 204 200 199 204 197 200 203 207 208 211 216 221 215 220 223 222
209 298 237 180 168 232 216 161 198 212 190 232 246 256 234 293 248 252 254 236 249 235 222 241 247 278 221 210 203 202 204 201 199 202 206 211 213 217 221 220 218 218 223 214
186 198 289 122 204 192 181 203 213 186 173 219 258 252 215 216 218 236 226 226 224 197 183 199 206 213 162 156 178 191 201 215 212 212 214 213 216 218 220 221 221 221 221 217
197 230 226 218 174 209 243 217 201 205 215 224 185 250 209 247 251 220 200 189 203 193 172 162 152 143 153 133 153 183 190 198 203 201 208 213 218 215 217 221 225 224 226 223
178 220 231 206 265 205 227 223 207 224 118 222 226 247 329 17 104 175 176 188 200 196 171 167 106 89 93 118 156 186 199 219 221 211 212 224 222 220 223 227 226 226 222 225
185 197 226 228 225 145 209 200 222 211 225 234 228 247 235 246 226 214 216 221 203 216 232 208 272 276 329 338 318 299 284 244 238 216 215 227 226 218 224 231 232 225 223 220
222 231 214 237 260 314 230 219 215 208 224 216 237 234 223 210 202 204 205 202 209 222 227 225 218 233 260 290 293 268 263 274 249 231 233 243 247 247 248 245 239 235 220 220
187 256 219 238 237 227 237 240 235 222 229 232 247 251 219 245 166 192 207 203 217 217 220 221 217 214 229 254 274 287 282 277 216 236 249 281 280 16 20 31 36 46 55 55
129 312 253 256 223 234 236 228 219 231 235 218 229 234 139 222 222 201 204 204 209 205 201 184 179 167 188 283 314 298 298 312 194 178 154 116 95 92 68 79 78 70 68 62
194 201 120 282 241 220 241 218 216 217 223 224 237 246 216 221 234 208 203 185 203 194 181 166 160 165 81 19 1 328 18 89 116 106 101 68 114 144 134 88 90 127 150 105
204 171 178 243 260 294 265 219 195 196 231 223 229 238 221 188 115 251 209 180 162 162 169 174 158 125 85 40 7 67 51 57 68 53 33 22 25 45 77 69 343 14 355 2
194 208 196 222 244 235 247 178 188 180 255 227 227 236 229 144 213 230 149 139 136 146 159 127 105 87 72 11 42 80 58 61 42 12 358 30 127 161 181 77 65 41 50 32
178 208 208 210 239 278 237 187 135 164 243 192 205 218 203 201 220 147 140 133 126 113 99 88 78 72 32 18 69 67 52 35 356 4 29 34 34 36 40 60 46 54 51 52
172 217 200 206 183 249 176 148 164 204 359 94 161 214 209 217 147 142 135 133 123 108 94 89 91 70 37 26 60 59 46 350 5 39 49 37 34 43 47 63 49 48 54 45
201 193 209 206 199 270 181 351 24 348 162 187 223 247 211 154 139 136 131 116 103 104 98 84 93 81 48 39 42 67 16 7 31 61 53 40 35 40 40 57 55 42 27 15
133 339 226 171 18 340 27 358 3 338 44 36 32 79 127 125 129 112 107 106 104 94 98 93 90 73 57 34 44 36 12 14 55 63 50 41 51 38 30 47 54 79 76 37
28 321 332 47 11 317 52 14 335 337 358 31 50 56 101 115 102 114 112 109 103 95 83 78 84 85 58 31 32 12 358 14 61 57 44 40 41 39 32 28 19 13 326 295
356 8 346 35 9 314 2 345 343 20 10 360 39 60 48 91 105 111 99 96 104 104 97 87 71 64 41 22 25 12 0 30 71 67 46 41 43 30 39 31 356 10 24 25